Location: Grossmont
(32.7784°N, 116.9884°W)
Time: 15:31:49
(UTC+00:00)

Daily predictions for brighter satellites

Satellite Brightness Start Highest point End
(mag) Time Altitude Azimuth Time Altitude Azimuth Time Altitude Azimuth
ATLAS 3B CENTAUR R/B 4.2 12:06:12 37° SSW 12:06:46 37° SSW 12:19:44 10° SE
COSMOS 2428 4.1 12:20:32 28° NNE 12:20:32 28° NNE 12:23:07 10° NNE
CZ-4B R/B 4.2 12:21:53 10° ESE 12:23:28 18° E 12:23:28 18° E
Meteor 2-5 Rocket 4.4 12:30:40 43° S 12:30:40 43° S 12:34:27 10° S
CZ-2C R/B 2.6 12:34:12 38° ESE 12:34:12 38° ESE 12:36:57 10° E
IRIDIUM 103 4.4 12:29:05 10° S 12:34:16 72° E 12:39:28 10° N
OAO 2 Rocket 3.4 12:43:18 66° NNE 12:43:18 66° NNE 12:47:47 10° ENE
ADEOS 4.2 12:38:18 10° N 12:49:25 - SSW 12:41:47 43° N
Meteor 2-10 4.1 12:38:09 10° S 12:43:50 89° E 12:49:25 10° N
H-II Stage 2 4.1 12:48:34 12° SSE 12:48:34 12° SSE 12:49:20 10° SSE
Cosmos 1892 Rocket 3.9 12:49:56 29° N 12:52:03 62° E 12:56:24 10° SSE
IRIDIUM 106 4.1 12:47:21 10° S 12:52:33 74° W 12:57:46 10° N
SL-24 R/B 3.8 12:49:44 10° SSE 12:53:23 78° ESE 12:53:23 78° ESE
Meteor 1-24 Rocket 3.7 12:59:02 52° W 12:59:22 53° W 13:04:53 10° S
Cosmos 1763 Rocket 4.0 13:01:32 39° NNW 13:01:32 39° NNW 13:05:16 10° N
COSMO-SKYMED 1 2.9 12:57:45 10° SSE 13:02:02 65° ENE 13:05:40 14° N
Cosmos 1844 4.1 13:02:59 41° WSW 13:02:59 41° WSW 13:08:08 10° S
Cosmos 841 Rocket 3.4 13:01:24 10° SSW 13:06:32 86° ESE 13:11:41 10° NNE
CZ-4B R/B 2.6 13:02:54 10° NNE 13:06:32 85° ESE 13:10:17 10° SSW
SJ 16-02 1.9 13:08:10 39° SW 13:08:10 39° SW 13:11:22 10° S
ATLAS 5 CENTAUR R/B 3.7 13:06:56 14° NNE 13:08:45 24° ENE 13:13:42 10° ESE
Lacrosse 4 Rocket 3.0 13:09:06 10° S 13:12:53 36° ESE 13:16:48 10° NE
FALCON 9 R/B 2.2 13:11:05 28° WSW 13:13:10 39° SSW 13:15:53 10° SE
CZ-3A R/B 4.4 13:06:19 23° WSW 13:13:16 39° SSW 13:21:04 10° SE
Cosmos 1898 Rocket 3.5 13:09:46 13° NNW 13:14:22 79° ENE 13:19:31 10° SSE
H-2A R/B 2.7 13:11:11 10° NNE 13:14:53 76° E 13:18:36 10° S
Gbstr 26 Del rocket 4.3 13:09:32 19° SW 13:15:07 78° NW 13:23:15 10° NE
USA 267 4.4 13:10:35 10° S 13:15:19 21° WSW 13:15:40 21° WSW
Cosmos 1544 Rocket 3.3 13:14:43 10° S 13:19:01 75° W 13:23:20 10° N
GPS 2-04 Rocket1 2.8 13:19:53 45° W 13:20:58 65° SSW 13:25:05 10° ESE
Cosmos 1570 Rocket 3.9 13:15:55 10° SSW 13:21:07 85° WNW 13:26:23 10° NNE
Cosmos 1844 Rocket 4.1 13:23:23 18° WSW 13:23:23 18° WSW 13:25:51 10° SSW
SL-16 R/B 3.6 13:19:32 10° S 13:24:45 40° ESE 13:30:00 10° NE
Cosmos 1400 Rocket 3.4 13:20:51 10° S 13:24:49 59° E 13:28:52 10° NNE
Atlas Centaur 2 3.2 13:21:43 21° WSW 13:27:22 72° S 13:35:54 10° E
SL-4 R/B 1.6 13:28:29 24° SW 13:30:33 80° NW 13:34:30 10° NE
NOSS 0 Rocket 4.2 13:25:50 10° SW 13:31:40 42° WNW 13:37:29 10° N
Cosmos 2278 Rocket 2.5 13:27:26 10° NNW 13:33:06 70° ENE 13:38:44 10° SSE
Meteor 1-21 Rocket 4.4 13:27:31 10° N 13:33:17 81° E 13:39:08 10° S
YAOGAN 6 2.6 13:30:42 10° NNE 13:34:24 85° ESE 13:38:05 10° S
CZ-2C R/B 4.5 13:32:05 10° SE 13:36:32 30° ENE 13:41:04 10° N
Cosmos 2237 Rocket 2.4 13:31:37 10° SW 13:37:02 47° WNW 13:42:31 10° N
Okean 1-7 Rocket 3.6 13:32:42 10° NNW 13:37:10 59° W 13:41:33 10° S
CENTAUR R/B 3.7 13:32:42 10° S 13:37:48 41° ESE 13:43:39 10° NE
PSLV R/B 3.9 13:35:12 10° NNE 13:39:11 83° E 13:43:15 10° S
Cosmos 2208 Rocket 4.0 13:36:02 10° SSW 13:41:26 68° WNW 13:46:52 10° N
Cosmos 2219 Rocket 4.1 13:44:04 11° NW 13:44:04 11° NW 13:44:34 10° NNW
USA 276 3.1 13:42:07 26° WSW 13:42:53 30° SW 13:45:40 10° SSE
Cosmos 1626 Rocket 3.7 13:39:49 10° N 13:44:18 80° E 13:48:45 10° S
Cosmos 1814 Rocket 4.0 13:39:28 10° SSW 13:44:30 55° WNW 13:49:32 10° N
Cosmos 1455 Rocket 4.2 13:42:37 10° SW 13:45:57 21° WNW 13:49:18 10° NNW
SL-19 R/B 4.5 13:43:24 10° NNE 13:47:09 64° ESE 13:50:24 10° S
ERS-2 2.5 13:43:56 10° S 13:47:24 42° W 13:50:53 10° NNW
Cosmos 1689 Rocket 1.9 13:44:53 10° S 13:47:46 67° WSW 13:50:39 10° NNW
Cosmos 1937 Rocket 3.5 13:43:17 10° NNW 13:48:32 68° WSW 13:53:41 10° S
SKYMED 2 4.3 13:46:15 10° SSW 13:50:05 31° W 13:53:57 10° NW
GEOS 3 Rocket 3.7 13:45:15 10° SE 13:50:34 85° ENE 13:55:59 10° NNW
USA 238 DEB 3.8 13:45:28 10° SSW 13:51:55 77° ESE 13:58:38 10° NNE
USA 238 3.8 13:45:36 10° SSW 13:52:03 77° ESE 13:58:46 10° NNE
ATLAS CENTAUR R/B 0.9 13:48:32 10° SSW 13:52:17 75° WNW 13:55:57 10° NNE
Aurora 2 Rocket 4.5 13:48:21 10° WSW 13:53:13 39° S 14:00:01 10° ESE
Cosmos 1953 3.2 13:49:54 10° SW 13:53:18 27° W 13:56:42 10° NNW
Envisat 3.0 13:48:50 10° N 13:53:50 60° WNW 13:58:49 10° SSW
Cosmos 1908 3.6 13:52:49 10° SSW 13:56:21 37° W 13:59:55 10° NNW
CZ-4B R/B 3.1 13:54:29 10° SW 13:56:32 15° W 13:56:35 15° W
H-2A R/B 2.9 13:54:16 10° NNE 13:58:47 76° ESE 14:03:15 10° S
NOAA 6 4.0 13:55:08 10° N 14:00:19 75° WNW 14:05:29 10° SSW
Cosmos 44 Rocket 3.4 14:02:04 10° NNW 14:07:18 78° WSW 14:12:27 10° SSE
USA 307 3.0 14:04:53 10° WSW 14:09:00 52° NW 14:13:07 10° NNE
MOS 1 Rocket 4.2 14:06:17 10° SSW 14:10:49 31° W 14:15:09 10° NW
Delta 142 4.3 14:06:47 10° WSW 14:10:58 51° S 14:16:02 10° ESE
CZ-2C R/B 1.2 14:08:33 10° W 14:12:40 68° N 14:16:31 10° ENE
Okean O Rocket 1.9 14:08:49 10° NNE 14:13:10 73° ESE 14:17:29 10° S
Cosmos 1315 Rocket 3.1 14:09:33 10° S 14:13:27 71° E 14:17:20 10° NNE
NOAA 11 4.5 14:10:07 10° NNE 14:15:35 76° ESE 14:21:00 10° S
USA 308 3.3 14:13:44 10° WSW 14:17:45 43° NW 14:21:47 10° NNE
CZ-3 Stage 3 0.4 14:15:09 10° W 14:17:51 50° S 14:19:29 10° ESE
USA 305 3.4 14:14:11 10° WSW 14:18:11 40° NW 14:22:11 10° NNE
Cosmos 1726 Rocket 4.3 14:14:39 10° S 14:18:53 59° E 14:23:06 10° NNE
FALCON 9 DEB 3.9 14:21:13 10° SSW 14:24:15 51° SE 14:27:16 10° NE
Cosmos 1602 Rocket 3.9 14:20:23 10° NNW 14:24:39 46° W 14:28:54 10° SSW
MOS 1-B 4.5 14:19:40 10° N 14:25:17 55° WNW 14:30:52 10° SSW
Cosmos 1092 Rocket 4.1 14:19:27 10° NNW 14:25:29 60° W 14:31:32 10° S
